Location: Dittelbrunn
(50.0738°N, 10.2196°E)
Time: 17:19:55
(UTC+00:00)

SL-14 R/B - Pass Details

Date: 18 September 2020
Orbit: 519 x 553 km, 82.4° (Epoch: 30 October)

Event Time Altitude Azimuth Distance (km) Brightness Sun altitude
Rises 19:10:30 0° 358° (N) 2,673 7.2 -17.2°
Reaches altitude 10° 19:12:54 10° 11° (N) 1,784 6.1 -17.5°
Enters shadow 19:15:55 27° 61° (ENE) 1,055 4.4 -18.0°
